x

Smith Island, Wa (sisw1) Weather Station

4:00 - Fri 27th May 2016 All times are PDT. -7 hours from GMT.

  • Wind
    20mph, 25mph gusts
  • Ar Temp 50°f
  • Sea Pressure 1019.5mb
  • Smith Island, Wa
  • Smith Island, Wa

More Historic Weather Station data

Upgrade to MSW Pro to gain access to the past 30 days of data for over 8000 Wavebouys and Weather Stations around the globe.

Join Pro

Comparision Forecast

View Surf forecast
   
Sex 05/27 4:00 20 25 mph 1019.5mb 50f
3:00 16 25 mph 1019.9mb 51f
2:00 20 26 mph 1019.7mb 51f
1:00 24 30 mph 1019.7mb 51f
12:00 21 26 mph 1020.3mb 51f
Qui 05/26 11:00 29 33 mph 1020.2mb 51f
10:00 32 39 mph 1019.9mb 52f
9:00 30 36 mph 1019.5mb 52f
8:00 30 34 mph 1019.3mb 52f
7:00 20 29 mph 1019.8mb 53f
6:00 22 26 mph 1020.1mb 53f
5:00 16 23 mph 1020.7mb 53f
4:00 13 15 mph 1021.2mb 54f
3:00 9 11 mph 1021.7mb 54f
2:00 7 9 mph 1021.9mb 56f
1:00 7 9 mph 1022.1mb 57f
12:00 7 9 mph 1022.1mb 57f
11:00 11 13 mph 1022mb 54f
10:00 15 16 mph 1022mb 53f
9:00 16 17 mph 1022.1mb 54f
8:00 16 18 mph 1022.2mb 53f
7:00 8 11 mph 1022.1mb 53f
6:00 11 13 mph 1022mb 51f
5:00 14 17 mph 1021.7mb 52f
4:00 15 20 mph 1021.9mb 52f
3:00 13 20 mph 1021.8mb 52f
2:00 13 17 mph 1021.8mb 52f
1:00 16 22 mph 1021.5mb 52f
12:00 16 24 mph 1021.6mb 52f
Qua 05/25 11:00 23 28 mph 1021.3mb 53f
10:00 21 28 mph 1021.1mb 53f
9:00 18 24 mph 1021mb 53f
8:00 14 18 mph 1020.7mb 54f
7:00 17 21 mph 1020.7mb 55f
6:00 15 17 mph 1020.9mb 56f
5:00 11 15 mph 1021.2mb 57f
4:00 10 13 mph 1021.3mb 58f
3:00 9 11 mph 1021.4mb 57f
2:00 9 10 mph 1021.3mb 56f
1:00 7 9 mph 1021.1mb 57f
12:00 13 14 mph 1020.9mb 55f
11:00 11 13 mph 1020.7mb 55f
10:00 11 13 mph 1020.2mb 54f
9:00 14 15 mph 1019.8mb 53f
8:00 15 16 mph 1019.3mb 52f
7:00 18 20 mph 1018.7mb 52f
6:00 18 21 mph 1018.5mb 51f
5:00 21 24 mph 1018mb 52f
4:00 18 22 mph 1017.7mb 51f
3:00 20 22 mph 1017.4mb 51f
2:00 17 20 mph 1017.2mb 52f
1:00 18 21 mph 1016.9mb 52f
12:00 21 23 mph 1016.8mb 52f
Ter 05/24 11:00 20 22 mph 1016.6mb 52f
10:00 15 16 mph 1016.6mb 52f
9:00 15 16 mph 1016.1mb 53f
8:00 14 15 mph 1015.8mb 53f
7:00 11 14 mph 1016mb 53f
6:00 9 11 mph 1016mb 53f
5:00 10 14 mph 1016.2mb 54f
4:00 8 13 mph 1016.2mb 54f
3:00 8 10 mph 1016.4mb 55f
2:00 8 9 mph 1016.3mb 55f
1:00 7 9 mph 1016mb 55f
12:00 8 9 mph 1015.8mb 53f
11:00 10 11 mph 1015.4mb 53f
10:00 13 14 mph 1015.1mb 52f
9:00 16 17 mph 1014.7mb 52f
8:00 20 21 mph 1014.4mb 52f
7:00 17 20 mph 1014.1mb 51f
6:00 16 17 mph 1014mb 51f
5:00 16 17 mph 1013.9mb 51f
4:00 15 18 mph 1013.9mb 52f
3:00 16 22 mph 1013.8mb 52f
2:00 15 20 mph 1013.7mb 52f
1:00 11 16 mph 1013.9mb 52f
12:00 16 18 mph 1013.8mb 52f
Seg 05/23 11:00 16 18 mph 1013.7mb 53f
10:00 17 20 mph 1013.6mb 53f
9:00 6 8 mph 1013.6mb 53f
8:00 6 7 mph 1013.6mb 53f
7:00  -  1 mph 1013.5mb 56f
6:00 1 2 mph 1013.8mb 55f
5:00 5 6 mph 1014mb 55f
4:00 7 8 mph 1014.1mb 56f
3:00 8
mph
1014.1mb 55f
2:00 6
mph
1014.1mb 56f
1:00 3 5 mph 1014mb 55f